| time (UTC) | temp F | wind direction | speed knots | gust knots | rain 1hr in | rain 24hr in | rain mn in | humidity % | barometer mb |
| 20260510021207 | 58 | 100 | 0.0 | 0.0 | 0.00 | 0.00 | 0.00 | 76 | 1007.4 |
| 20260510020208 | 58 | 124 | 0.0 | 0.0 | 0.00 | 0.00 | 0.00 | 76 | 1007.4 |
| 20260510015208 | 58 | 124 | 0.0 | 0.0 | 0.00 | 0.00 | 0.00 | 78 | 1007.4 |
| 20260510014208 | 58 | 138 | 0.0 | 0.0 | 0.00 | 0.00 | 0.00 | 78 | 1007.4 |
| 20260510013208 | 58 | 116 | 0.0 | 0.0 | 0.00 | 0.00 | 0.00 | 80 | 1007.4 |
| 20260510012218 | 58 | 118 | 0.9 | 0.0 | 0.00 | 0.00 | 0.00 | 80 | 1007.4 |
| 20260510011207 | 58 | 130 | 0.9 | 0.0 | 0.00 | 0.00 | 0.00 | 78 | 1007.4 |
| 20260510010208 | 58 | 108 | 0.9 | 0.0 | 0.00 | 0.00 | 0.00 | 78 | 1007.4 |
| 20260510005208 | 58 | 112 | 0.9 | 0.0 | 0.00 | 0.00 | 0.00 | 78 | 1007.6 |
| 20260510004208 | 58 | 92 | 0.0 | 0.0 | 0.00 | 0.00 | 0.00 | 78 | 1007.6 |
| 20260510003208 | 58 | 100 | 0.0 | 0.0 | 0.00 | 0.00 | 0.00 | 78 | 1007.8 |
| 20260510002217 | 58 | 100 | 0.0 | 0.0 | 0.00 | 0.00 | 0.00 | 78 | 1008.0 |
| 20260510001208 | 58 | 100 | 0.0 | 0.0 | 0.00 | 0.00 | 0.00 | 76 | 1008.0 |
| 20260510000208 | 60 | 100 | 0.0 | 0.0 | 0.00 | 0.00 | 0.00 | 74 | 1008.0 |
| 20260509235208 | 60 | 96 | 0.0 | 0.0 | 0.00 | 0.00 | 0.00 | 72 | 1008.2 |
| 20260509234208 | 60 | 96 | 0.0 | 0.0 | 0.00 | 0.00 | 0.00 | 72 | 1008.2 |
| 20260509233208 | 60 | 96 | 0.0 | 0.0 | 0.00 | 0.00 | 0.00 | 70 | 1008.2 |
| 20260509232218 | 60 | 96 | 0.0 | 0.0 | 0.00 | 0.00 | 0.00 | 72 | 1008.2 |
| 20260509231208 | 62 | 96 | 0.0 | 0.0 | 0.00 | 0.00 | 0.00 | 70 | 1008.2 |
| 20260509230208 | 62 | 96 | 0.0 | 0.0 | 0.00 | 0.00 | 0.00 | 66 | 1008.2 |
| 20260509225208 | 62 | 96 | 0.0 | 0.0 | 0.00 | 0.00 | 0.00 | 64 | 1008.2 |
| 20260509224208 | 62 | 96 | 0.0 | 0.0 | 0.00 | 0.00 | 0.00 | 64 | 1008.2 |
| 20260509223208 | 62 | 96 | 0.0 | 0.0 | 0.00 | 0.00 | 0.00 | 62 | 1008.2 |
| 20260509222218 | 64 | 96 | 0.0 | 0.0 | 0.00 | 0.00 | 0.00 | 62 | 1008.0 |
| 20260509221208 | 64 | 102 | 0.0 | 0.0 | 0.00 | 0.00 | 0.00 | 62 | 1008.0 |
| 20260509220209 | 64 | 96 | 0.0 | 0.0 | 0.00 | 0.00 | 0.00 | 62 | 1007.8 |
| 20260509215208 | 64 | 96 | 0.0 | 0.0 | 0.00 | 0.00 | 0.00 | 62 | 1008.0 |
| 20260509214208 | 64 | 192 | 0.0 | 0.0 | 0.00 | 0.00 | 0.00 | 64 | 1008.0 |
| 20260509213208 | 62 | 114 | 0.9 | 0.0 | 0.00 | 0.00 | 0.00 | 66 | 1008.2 |
| 20260509212222 | 62 | 102 | 0.0 | 0.0 | 0.00 | 0.00 | 0.00 | 72 | 1008.2 |
| 20260509211208 | 62 | 84 | 0.0 | 0.0 | 0.00 | 0.00 | 0.00 | 74 | 1008.2 |
| 20260509210208 | 62 | 144 | 0.0 | 0.0 | 0.00 | 0.00 | 0.00 | 74 | 1008.4 |
| 20260509205208 | 62 | 144 | 0.0 | 0.0 | 0.00 | 0.00 | 0.00 | 74 | 1008.4 |
| 20260509204208 | 62 | 144 | 0.0 | 0.0 | 0.00 | 0.00 | 0.00 | 74 | 1008.4 |
| 20260509203208 | 62 | 144 | 0.0 | 0.0 | 0.00 | 0.00 | 0.00 | 72 | 1008.4 |
| 20260509202213 | 64 | 144 | 0.0 | 0.0 | 0.00 | 0.00 | 0.00 | 72 | 1008.2 |
| 20260509201208 | 64 | 144 | 0.0 | 0.0 | 0.00 | 0.00 | 0.00 | 72 | 1008.0 |
| 20260509200208 | 64 | 144 | 0.0 | 0.0 | 0.00 | 0.00 | 0.00 | 70 | 1008.0 |
| 20260509195208 | 66 | 144 | 0.0 | 0.0 | 0.00 | 0.00 | 0.00 | 70 | 1007.8 |
| 20260509194208 | 66 | 144 | 0.0 | 0.0 | 0.00 | 0.00 | 0.00 | 68 | 1007.6 |
| 20260509193208 | 68 | 144 | 0.0 | 0.0 | 0.00 | 0.00 | 0.00 | 66 | 1007.4 |
| 20260509192218 | 68 | 144 | 0.0 | 0.0 | 0.00 | 0.00 | 0.00 | 62 | 1007.4 |
| 20260509191208 | 68 | 144 | 0.0 | 0.0 | 0.00 | 0.00 | 0.00 | 62 | 1007.2 |
| 20260509190208 | 70 | 206 | 0.0 | 0.0 | 0.00 | 0.00 | 0.00 | 60 | 1007.2 |
| 20260509185208 | 70 | 116 | 0.0 | 0.0 | 0.00 | 0.00 | 0.00 | 60 | 1007.0 |
| 20260509184208 | 70 | 116 | 0.9 | 0.0 | 0.00 | 0.00 | 0.00 | 60 | 1006.8 |
| 20260509183208 | 70 | 112 | 0.9 | 0.0 | 0.00 | 0.00 | 0.00 | 58 | 1006.8 |
| 20260509182218 | 72 | 52 | 0.9 | 0.0 | 0.00 | 0.00 | 0.00 | 58 | 1006.8 |
| 20260509181208 | 72 | 160 | 1.7 | 0.0 | 0.00 | 0.00 | 0.00 | 56 | 1006.8 |
| 20260509180208 | 72 | 106 | 0.9 | 0.0 | 0.00 | 0.00 | 0.00 | 56 | 1006.6 |
| 20260509175208 | 72 | 136 | 0.9 | 0.0 | 0.00 | 0.00 | 0.00 | 56 | 1006.6 |
| 20260509174208 | 74 | 182 | 1.7 | 0.0 | 0.00 | 0.00 | 0.00 | 54 | 1006.4 |
| 20260509173208 | 74 | 110 | 0.9 | 0.0 | 0.00 | 0.00 | 0.00 | 56 | 1006.4 |
| 20260509172213 | 74 | 32 | 1.7 | 0.0 | 0.00 | 0.00 | 0.00 | 56 | 1006.4 |
| 20260509171209 | 74 | 82 | 2.6 | 0.0 | 0.00 | 0.00 | 0.00 | 56 | 1006.2 |
| 20260509170209 | 74 | 56 | 1.7 | 0.0 | 0.00 | 0.00 | 0.00 | 54 | 1006.2 |
| 20260509165208 | 74 | 122 | 3.5 | 0.0 | 0.00 | 0.00 | 0.00 | 54 | 1006.2 |
| 20260509164208 | 76 | 86 | 1.7 | 0.0 | 0.00 | 0.00 | 0.00 | 50 | 1006.2 |
| 20260509163208 | 76 | 32 | 0.9 | 0.0 | 0.00 | 0.00 | 0.00 | 52 | 1006.2 |
| 20260509162208 | 76 | 184 | 1.7 | 0.0 | 0.00 | 0.00 | 0.00 | 52 | 1006.2 |
| 20260509161208 | 76 | 100 | 0.9 | 0.0 | 0.00 | 0.00 | 0.00 | 52 | 1006.2 |
| 20260509160208 | 76 | 138 | 0.9 | 0.0 | 0.00 | 0.00 | 0.00 | 50 | 1006.4 |
| 20260509155208 | 76 | 112 | 1.7 | 0.0 | 0.00 | 0.00 | 0.00 | 52 | 1006.4 |
| 20260509154208 | 76 | 86 | 3.5 | 0.0 | 0.00 | 0.00 | 0.00 | 50 | 1006.4 |
| 20260509153208 | 76 | 56 | 0.9 | 0.0 | 0.00 | 0.00 | 0.00 | 54 | 1006.6 |
| 20260509152217 | 76 | 180 | 1.7 | 0.0 | 0.00 | 0.00 | 0.00 | 50 | 1006.6 |
| 20260509151208 | 76 | 94 | 2.6 | 0.0 | 0.00 | 0.00 | 0.00 | 48 | 1006.6 |
| 20260509150207 | 78 | 94 | 1.7 | 0.0 | 0.00 | 0.00 | 0.00 | 48 | 1006.8 |
| 20260509145208 | 78 | 154 | 2.6 | 0.0 | 0.00 | 0.00 | 0.00 | 52 | 1006.8 |
| 20260509144208 | 76 | 128 | 2.6 | 0.0 | 0.00 | 0.00 | 0.00 | 50 | 1006.8 |
| 20260509143208 | 76 | 72 | 1.7 | 0.0 | 0.00 | 0.00 | 0.00 | 52 | 1007.0 |
| 20260509142218 | 76 | 132 | 2.6 | 0.0 | 0.00 | 0.00 | 0.00 | 48 | 1007.2 |
| 20260509141208 | 76 | 170 | 2.6 | 0.0 | 0.00 | 0.00 | 0.00 | 50 | 1007.2 |
| 20260509140208 | 76 | 94 | 2.6 | 0.0 | 0.00 | 0.00 | 0.00 | 50 | 1007.4 |
| 20260509135208 | 78 | 178 | 0.9 | 0.0 | 0.00 | 0.00 | 0.00 | 50 | 1007.6 |
| 20260509134208 | 76 | 114 | 1.7 | 0.0 | 0.00 | 0.00 | 0.00 | 50 | 1007.6 |
| 20260509133208 | 76 | 248 | 2.6 | 0.0 | 0.00 | 0.00 | 0.00 | 52 | 1007.8 |
| 20260509132217 | 76 | 152 | 1.7 | 0.0 | 0.00 | 0.00 | 0.00 | 54 | 1007.8 |
| 20260509131208 | 76 | 180 | 1.7 | 0.0 | 0.00 | 0.00 | 0.00 | 54 | 1007.8 |
| 20260509130207 | 76 | 64 | 1.7 | 0.0 | 0.00 | 0.00 | 0.00 | 52 | 1008.0 |
| 20260509125208 | 74 | 66 | 0.9 | 0.0 | 0.00 | 0.00 | 0.00 | 56 | 1008.2 |
| 20260509124208 | 74 | 88 | 1.7 | 0.0 | 0.00 | 0.00 | 0.00 | 58 | 1008.2 |
| 20260509123208 | 74 | 230 | 2.6 | 0.0 | 0.00 | 0.00 | 0.00 | 56 | 1008.4 |
| 20260509122218 | 74 | 226 | 1.7 | 0.0 | 0.00 | 0.00 | 0.00 | 56 | 1008.4 |
| 20260509121208 | 74 | 68 | 2.6 | 0.0 | 0.00 | 0.00 | 0.00 | 58 | 1008.4 |
| 20260509120208 | 74 | 132 | 1.7 | 0.0 | 0.00 | 0.00 | 0.00 | 60 | 1008.4 |
| 20260509115208 | 74 | 72 | 1.7 | 0.0 | 0.00 | 0.00 | 0.00 | 56 | 1008.6 |
| 20260509114208 | 74 | 216 | 1.7 | 0.0 | 0.00 | 0.00 | 0.00 | 58 | 1008.6 |
| 20260509113208 | 72 | 210 | 2.6 | 0.0 | 0.00 | 0.00 | 0.00 | 62 | 1008.6 |
| 20260509112217 | 74 | 150 | 1.7 | 0.0 | 0.00 | 0.00 | 0.00 | 58 | 1008.8 |
| 20260509111208 | 74 | 102 | 2.6 | 0.0 | 0.00 | 0.00 | 0.00 | 56 | 1008.8 |
| 20260509110208 | 74 | 134 | 0.9 | 0.0 | 0.00 | 0.00 | 0.00 | 58 | 1009.0 |
| 20260509105208 | 72 | 178 | 2.6 | 0.0 | 0.00 | 0.00 | 0.00 | 58 | 1009.0 |
| 20260509104207 | 72 | 212 | 1.7 | 0.0 | 0.00 | 0.00 | 0.00 | 60 | 1009.2 |
| 20260509103208 | 72 | 94 | 1.7 | 0.0 | 0.00 | 0.00 | 0.00 | 60 | 1009.4 |
| 20260509102208 | 72 | 206 | 0.9 | 0.0 | 0.00 | 0.00 | 0.00 | 60 | 1009.4 |
| 20260509101208 | 72 | 120 | 2.6 | 0.0 | 0.00 | 0.00 | 0.00 | 60 | 1009.6 |
| 20260509100208 | 70 | 242 | 0.9 | 0.0 | 0.00 | 0.00 | 0.00 | 60 | 1009.8 |
| 20260509095208 | 70 | 112 | 1.7 | 0.0 | 0.00 | 0.00 | 0.00 | 64 | 1009.8 |
| 20260509094208 | 70 | 108 | 1.7 | 0.0 | 0.00 | 0.00 | 0.00 | 62 | 1010.0 |
| 20260509093208 | 70 | 50 | 1.7 | 0.0 | 0.00 | 0.00 | 0.00 | 62 | 1009.8 |
| 20260509092213 | 70 | 218 | 1.7 | 0.0 | 0.00 | 0.00 | 0.00 | 62 | 1010.0 |
| 20260509091208 | 70 | 112 | 2.6 | 0.0 | 0.00 | 0.00 | 0.00 | 62 | 1009.8 |
| 20260509090208 | 70 | 114 | 1.7 | 0.0 | 0.00 | 0.00 | 0.00 | 62 | 1009.6 |
| 20260509085208 | 68 | 106 | 1.7 | 0.0 | 0.00 | 0.00 | 0.00 | 62 | 1009.6 |
| 20260509084208 | 68 | 88 | 1.7 | 0.0 | 0.00 | 0.00 | 0.00 | 66 | 1009.8 |
| 20260509083208 | 66 | 88 | 1.7 | 0.0 | 0.00 | 0.00 | 0.00 | 64 | 1009.8 |
| 20260509082208 | 66 | 194 | 1.7 | 0.0 | 0.00 | 0.00 | 0.00 | 68 | 1009.8 |
| 20260509081208 | 66 | 96 | 1.7 | 0.0 | 0.00 | 0.00 | 0.00 | 68 | 1010.0 |
| 20260509080208 | 64 | 52 | 1.7 | 0.0 | 0.00 | 0.00 | 0.00 | 70 | 1010.0 |
| 20260509075208 | 64 | 136 | 0.9 | 0.0 | 0.00 | 0.00 | 0.00 | 70 | 1010.2 |
| 20260509074208 | 62 | 106 | 1.7 | 0.0 | 0.00 | 0.00 | 0.00 | 74 | 1010.4 |
| 20260509073208 | 60 | 116 | 0.9 | 0.0 | 0.00 | 0.00 | 0.00 | 74 | 1010.4 |
| 20260509072208 | 58 | 140 | 1.7 | 0.0 | 0.00 | 0.00 | 0.00 | 78 | 1010.6 |
| 20260509071208 | 58 | 110 | 1.7 | 0.0 | 0.00 | 0.00 | 0.00 | 76 | 1010.6 |
| 20260509070208 | 58 | 130 | 1.7 | 0.0 | 0.00 | 0.00 | 0.00 | 78 | 1010.8 |
| 20260509065209 | 56 | 108 | 2.6 | 0.0 | 0.00 | 0.00 | 0.00 | 78 | 1010.8 |
| 20260509064208 | 56 | 84 | 2.6 | 0.0 | 0.00 | 0.00 | 0.00 | 78 | 1011.0 |
| 20260509063208 | 56 | 114 | 0.9 | 0.0 | 0.00 | 0.00 | 0.00 | 80 | 1011.0 |
| 20260509062213 | 54 | 36 | 0.0 | 0.0 | 0.00 | 0.00 | 0.00 | 82 | 1011.0 |
| 20260509061208 | 54 | 68 | 0.0 | 0.0 | 0.00 | 0.00 | 0.00 | 84 | 1011.0 |
| 20260509060208 | 52 | 120 | 0.0 | 0.0 | 0.00 | 0.00 | 0.00 | 88 | 1011.0 |
| 20260509055208 | 52 | 120 | 0.0 | 0.0 | 0.00 | 0.00 | 0.00 | 90 | 1011.0 |
| 20260509054208 | 50 | 120 | 0.0 | 0.0 | 0.00 | 0.00 | 0.00 | 92 | 1011.0 |
| 20260509053208 | 50 | 164 | 0.0 | 0.0 | 0.00 | 0.00 | 0.00 | 92 | 1011.0 |
| 20260509052212 | 50 | 164 | 0.0 | 0.0 | 0.00 | 0.00 | 0.00 | 92 | 1011.0 |
| 20260509051207 | 50 | 164 | 0.0 | 0.0 | 0.00 | 0.00 | 0.00 | 92 | 1010.8 |
| 20260509050208 | 50 | 164 | 0.0 | 0.0 | 0.00 | 0.00 | 0.00 | 92 | 1010.8 |
| 20260509045208 | 50 | 164 | 0.0 | 0.0 | 0.00 | 0.00 | 0.00 | 92 | 1010.6 |
| 20260509044208 | 50 | 164 | 0.0 | 0.0 | 0.00 | 0.00 | 0.00 | 90 | 1010.6 |
| 20260509043208 | 50 | 164 | 0.0 | 0.0 | 0.00 | 0.00 | 0.00 | 90 | 1010.6 |
| 20260509042212 | 50 | 164 | 0.0 | 0.0 | 0.00 | 0.00 | 0.00 | 90 | 1010.4 |
| 20260509041207 | 50 | 164 | 0.0 | 0.0 | 0.00 | 0.00 | 0.00 | 90 | 1010.4 |
| 20260509040208 | 50 | 164 | 0.0 | 0.0 | 0.00 | 0.00 | 0.00 | 90 | 1010.4 |
| 20260509035208 | 50 | 164 | 0.0 | 0.0 | 0.00 | 0.00 | 0.00 | 90 | 1010.2 |
| 20260509034208 | 50 | 164 | 0.0 | 0.0 | 0.00 | 0.00 | 0.00 | 90 | 1010.2 |
| 20260509033208 | 50 | 164 | 0.0 | 0.0 | 0.00 | 0.00 | 0.00 | 90 | 1010.4 |
| 20260509032218 | 50 | 164 | 0.0 | 0.0 | 0.00 | 0.00 | 0.00 | 90 | 1010.4 |
| 20260509031207 | 52 | 164 | 0.0 | 0.0 | 0.00 | 0.00 | 0.00 | 90 | 1010.4 |
| 20260509030208 | 52 | 164 | 0.0 | 0.0 | 0.00 | 0.00 | 0.00 | 88 | 1010.6 |
| 20260509025208 | 52 | 164 | 0.0 | 0.0 | 0.00 | 0.00 | 0.00 | 88 | 1010.6 |
| 20260509024208 | 52 | 164 | 0.0 | 0.0 | 0.00 | 0.00 | 0.00 | 88 | 1010.6 |
| 20260509023208 | 52 | 164 | 0.0 | 0.0 | 0.00 | 0.00 | 0.00 | 88 | 1010.4 |
| 20260509022213 | 52 | 164 | 0.0 | 0.0 | 0.00 | 0.00 | 0.00 | 88 | 1010.6 |